W5TTY Weather Reports


time (UTC)temp
F
wind
direction
speed
knots
gust
knots
rain 1hr
in
rain 24hr
in
rain mn
in
humidity
%
barometer
mb
20260508160850 65 67 2.6 5.2 0.00 0.38 0.38 88 1012.9
20260508160317 65 69 2.6 5.2 0.00 0.38 0.38 88 1013.1
20260508155821 65 54 1.7 7.0 0.00 0.38 0.38 88 1013.0
20260508155331 65 78 2.6 7.0 0.00 0.38 0.38 88 1013.1
20260508154837 64 32 4.3 7.0 0.00 0.38 0.38 88 1013.1
20260508154343 64 77 3.5 7.8 0.00 0.38 0.38 88 1013.1
20260508153824 64 79 4.3 7.8 0.00 0.38 0.38 88 1013.4
20260508153357 64 96 4.3 7.8 0.00 0.38 0.38 88 1013.4
20260508152843 64 100 3.5 7.8 0.00 0.38 0.38 88 1013.3
20260508152324 64 90 3.5 7.8 0.00 0.38 0.38 88 1013.4
20260508151834 64 96 3.5 7.0 0.00 0.38 0.38 88 1013.4
20260508151338 64 107 2.6 5.2 0.00 0.38 0.38 88 1013.5
20260508150823 63 73 0.9 6.1 0.00 0.38 0.38 87 1013.6
20260508150329 63 78 3.5 6.1 0.00 0.38 0.38 87 1013.6
20260508145905 63 72 3.5 7.0 0.00 0.38 0.38 87 1013.6
20260508145346 63 84 3.5 7.0 0.00 0.38 0.38 87 1013.6
20260508144831 63 61 2.6 6.1 0.00 0.38 0.38 87 1013.5
20260508144338 63 55 2.6 7.8 0.00 0.38 0.38 87 1013.5
20260508143826 63 80 3.5 7.0 0.00 0.38 0.38 87 1013.6
20260508143331 63 86 2.6 7.0 0.00 0.38 0.38 87 1013.5
20260508142820 63 90 3.5 7.0 0.00 0.38 0.38 87 1013.6
20260508142326 63 88 3.5 5.2 0.00 0.38 0.38 87 1013.7
20260508141852 63 84 2.6 7.0 0.00 0.38 0.38 87 1013.7
20260508141350 63 113 4.3 7.0 0.00 0.38 0.38 87 1013.6
20260508140830 63 81 2.6 4.3 0.00 0.38 0.38 87 1013.6
20260508140339 63 72 3.5 5.2 0.00 0.38 0.38 87 1013.5
20260508135825 63 101 2.6 7.0 0.00 0.38 0.38 87 1013.6
20260508135329 63 99 2.6 7.0 0.00 0.38 0.38 86 1013.4
20260508134837 63 74 2.6 7.0 0.00 0.38 0.38 86 1013.4
20260508134318 63 68 4.3 7.0 0.00 0.38 0.38 86 1013.3
20260508133851 63 65 1.7 5.2 0.00 0.38 0.38 87 1013.5
20260508133353 63 64 3.5 5.2 0.00 0.38 0.38 87 1013.5
20260508132841 63 106 1.7 7.0 0.00 0.38 0.38 86 1013.7
20260508132318 63 92 3.5 7.0 0.00 0.38 0.38 87 1013.7
20260508131829 63 100 2.6 5.2 0.00 0.38 0.38 86 1013.5
20260508131355 63 130 0.9 7.0 0.00 0.38 0.38 86 1013.5
20260508130820 63 102 3.5 7.0 0.00 0.38 0.38 86 1013.5
20260508130321 62 101 2.6 7.0 0.00 0.38 0.38 86 1013.3
20260508125825 62 103 3.5 7.0 0.00 0.38 0.38 86 1013.2
20260508125328 62 134 3.5 7.8 0.00 0.38 0.38 86 1013.2
20260508124833 62 126 4.3 7.8 0.00 0.38 0.38 86 1013.3
20260508124317 62 86 2.6 7.8 0.00 0.38 0.38 86 1013.3
20260508123829 62 98 4.3 7.8 0.00 0.38 0.38 86 1013.4
20260508123332 62 121 3.5 7.8 0.00 0.38 0.38 86 1013.7
20260508122838 62 99 4.3 7.0 0.00 0.38 0.38 86 1013.8
20260508122322 62 94 3.5 7.0 0.00 0.38 0.38 86 1013.8
20260508121824 61 71 2.6 7.0 0.00 0.38 0.38 86 1014.0
20260508121328 61 65 2.6 7.0 0.00 0.38 0.38 86 1014.0
20260508120902 61 67 0.9 5.2 0.00 0.38 0.38 86 1014.2
20260508120349 61 42 1.7 2.6 0.02 0.38 0.38 86 1014.1
20260508115835 61 38 1.7 5.2 0.15 0.38 0.38 85 1014.1
20260508115319 61 31 2.6 5.2 0.21 0.38 0.38 85 1014.1
20260508114819 61 41 3.5 7.8 0.35 0.38 0.38 85 1013.9
20260508114324 61 78 4.3 8.7 0.38 0.38 0.38 85 1013.8
20260508113836 61 78 6.1 8.7 0.38 0.38 0.38 85 1013.8
20260508113344 61 52 4.3 7.8 0.38 0.38 0.38 85 1013.8
20260508112828 61 63 3.5 7.8 0.38 0.38 0.38 85 1013.8
20260508112336 61 42 4.3 7.8 0.38 0.38 0.38 85 1013.9
20260508111823 62 36 3.5 7.8 0.38 0.38 0.38 85 1014.0
20260508111324 62 55 3.5 7.8 0.38 0.38 0.38 85 1013.9
20260508110830 62 33 3.5 7.0 0.38 0.38 0.38 85 1014.0
20260508032337 62 20 3.5 7.8 0.00 0.00 0.00 81 1014.0
20260508031822 62 37 4.3 7.8 0.00 0.00 0.00 81 1013.9
20260508031324 62 47 2.6 5.2 0.00 0.00 0.00 81 1014.1
20260508030823 62 349 2.6 4.3 0.00 0.00 0.00 81 1014.7
20260508030354 62 17 2.6 3.5 0.00 0.00 0.00 81 1014.4
20260508025819 62 36 2.6 3.5 0.00 0.00 0.00 81 1014.5
20260508025342 63 44 2.6 4.3 0.00 0.00 0.00 81 1014.2
20260508024828 63 50 2.6 4.3 0.00 0.00 0.00 81 1014.0
20260508024335 63 40 2.6 4.3 0.00 0.00 0.00 81 1014.0
20260508023820 63 38 2.6 4.3 0.00 0.00 0.00 81 1014.0
20260508023327 63 348 1.7 7.0 0.00 0.00 0.00 81 1014.6
20260508022831 63 347 2.6 7.0 0.00 0.00 0.00 81 1014.6
20260508022341 63 330 3.5 5.2 0.00 0.00 0.00 81 1014.6
20260508021826 63 35 2.6 4.3 0.00 0.00 0.00 81 1014.3
20260508021324 63 66 1.7 4.3 0.00 0.00 0.00 81 1013.9
20260508020830 63 52 2.6 4.3 0.00 0.00 0.00 80 1013.7
20260508020318 63 96 3.5 6.1 0.00 0.00 0.00 80 1013.5
20260508015826 63 94 3.5 6.1 0.00 0.00 0.00 81 1013.6
20260508015330 63 92 2.6 5.2 0.00 0.00 0.00 81 1013.8
20260508014835 63 89 2.6 5.2 0.00 0.00 0.00 81 1013.9
20260508014320 63 90 1.7 3.5 0.00 0.00 0.00 81 1014.1
20260508013833 63 90 1.7 5.2 0.00 0.00 0.00 80 1014.1
20260508013337 63 85 1.7 5.2 0.00 0.00 0.00 80 1014.0
20260508012846 64 94 2.6 5.2 0.00 0.00 0.00 80 1014.0
20260508012330 64 43 0.9 2.6 0.00 0.00 0.00 80 1014.2
20260508011821 64 39 1.7 4.3 0.00 0.00 0.00 80 1014.2
20260508011328 64 38 1.7 4.3 0.00 0.00 0.00 80 1014.3
20260508010837 64 41 2.6 3.5 0.00 0.00 0.00 80 1014.4
20260508010347 64 41 0.9 3.5 0.00 0.00 0.00 80 1014.3
20260508005831 64 41 1.7 4.3 0.00 0.00 0.00 80 1014.5
20260508005318 64 32 1.7 3.5 0.00 0.00 0.00 80 1014.4
20260508004826 64 12 1.7 3.5 0.00 0.00 0.00 80 1014.7
20260508004329 64 9 0.9 4.3 0.00 0.00 0.00 80 1014.9
20260508003835 64 19 2.6 4.3 0.00 0.00 0.00 80 1015.0
20260508003323 64 24 2.6 4.3 0.00 0.00 0.00 80 1014.8
20260508002833 65 22 2.6 4.3 0.00 0.00 0.00 80 1014.5
20260508002318 65 11 2.6 5.2 0.00 0.00 0.00 81 1014.9
20260508001826 65 338 2.6 4.3 0.00 0.00 0.00 81 1015.0
20260508001331 65 5 1.7 3.5 0.00 0.00 0.00 81 1014.7
20260508000833 65 5 1.7 5.2 0.00 0.00 0.00 81 1014.8
20260508000320 65 5 2.6 5.2 0.00 0.00 0.00 81 1014.9
20260507235834 65 355 2.6 5.2 0.00 0.00 0.00 81 1014.7
20260507235341 65 355 3.5 5.2 0.00 0.00 0.00 80 1014.8
20260507234827 65 360 2.6 4.3 0.00 0.00 0.00 80 1014.9
20260507234333 65 348 1.7 5.2 0.00 0.00 0.00 81 1014.9
20260507233821 65 339 2.6 7.0 0.00 0.00 0.00 81 1015.0
20260507233326 65 346 2.6 7.0 0.00 0.00 0.00 81 1015.0
20260507232900 65 19 2.6 7.8 0.00 0.00 0.00 81 1015.0
20260507232327 65 333 2.6 7.8 0.00 0.00 0.00 81 1015.1
20260507231831 66 15 3.5 7.8 0.00 0.00 0.00 81 1014.9
20260507231337 65 355 3.5 7.8 0.00 0.00 0.00 81 1014.9
20260507230826 65 5 5.2 7.8 0.00 0.00 0.00 81 1014.7
20260507230335 65 26 5.2 7.8 0.00 0.00 0.00 81 1014.7
20260507225844 65 44 3.5 6.1 0.00 0.00 0.00 81 1014.7
20260507225348 66 55 2.6 7.0 0.00 0.00 0.00 81 1015.0
20260507224836 66 49 2.6 6.1 0.00 0.00 0.00 81 1015.2
20260507224324 66 32 4.3 8.7 0.00 0.00 0.00 82 1015.2
20260507223827 65 23 4.3 8.7 0.00 0.00 0.00 82 1015.3
20260507223337 65 26 4.3 7.8 0.00 0.00 0.00 82 1015.2
20260507222851 65 24 4.3 7.8 0.00 0.00 0.00 81 1015.2
20260507222333 65 342 3.5 13.0 0.00 0.00 0.00 81 1015.3
20260507221820 65 24 5.2 13.0 0.00 0.00 0.00 81 1015.2
20260507221349 66 322 7.8 13.0 0.00 0.00 0.00 81 1015.0
20260507220835 66 355 8.7 13.0 0.00 0.00 0.00 82 1014.9
20260507220322 66 341 7.0 11.3 0.00 0.00 0.00 82 1015.2
20260507215825 65 5 5.2 11.3 0.00 0.00 0.00 82 1015.2
20260507215357 65 325 6.1 11.3 0.00 0.00 0.00 82 1015.4
20260507214845 65 9 5.2 10.4 0.00 0.00 0.00 82 1015.4
20260507214349 65 349 3.5 9.6 0.00 0.00 0.00 82 1015.7
20260507213834 65 40 4.3 10.4 0.00 0.00 0.00 82 1015.8
20260507213319 65 355 5.2 11.3 0.00 0.00 0.00 82 1015.4
20260507212854 66 355 4.3 12.2 0.00 0.00 0.00 82 1015.4
20260507212319 65 360 6.1 12.2 0.00 0.00 0.00 82 1015.2
20260507211828 65 32 3.5 8.7 0.00 0.00 0.00 83 1015.1
20260507211334 65 20 4.3 8.7 0.00 0.00 0.00 82 1015.1
20260507210822 65 355 4.3 9.6 0.00 0.00 0.00 82 1015.0
20260507210327 65 41 3.5 9.6 0.00 0.00 0.00 82 1014.9
20260507205836 65 53 4.3 9.6 0.00 0.00 0.00 82 1015.0
20260507205324 66 46 4.3 7.8 0.00 0.00 0.00 83 1014.8
20260507204829 66 58 2.6 8.7 0.00 0.00 0.00 83 1015.0
20260507204318 66 28 5.2 9.6 0.00 0.00 0.00 83 1015.2
20260507203819 66 64 3.5 7.0 0.00 0.00 0.00 83 1015.4
20260507203324 66 37 1.7 9.6 0.00 0.00 0.00 83 1015.6
20260507202840 66 19 3.5 12.2 0.00 0.00 0.00 83 1015.9
20260507202325 66 11 4.3 9.6 0.00 0.00 0.00 83 1016.0
20260507201828 66 17 7.0 10.4 0.00 0.00 0.00 83 1015.7
20260507201337 66 11 6.1 11.3 0.00 0.00 0.00 83 1015.7
20260507200820 66 28 7.0 11.3 0.00 0.00 0.00 84 1015.8
20260507200328 66 355 4.3 10.4 0.00 0.00 0.00 84 1015.9
20260507195903 66 36 5.2 10.4 0.00 0.00 0.00 84 1016.0
20260507195318 66 67 3.5 11.3 0.00 0.00 0.00 84 1016.1
20260507194831 66 360 5.2 11.3 0.00 0.00 0.00 84 1016.5
20260507194357 66 50 4.3 10.4 0.00 0.00 0.00 84 1016.8
20260507193821 67 341 2.6 10.4 0.00 0.00 0.00 84 1016.8
20260507193327 66 336 6.1 10.4 0.00 0.00 0.00 85 1016.9
20260507192830 66 5 3.5 10.4 0.00 0.00 0.00 85 1017.2
20260507192335 66 26 5.2 13.0 0.00 0.00 0.00 85 1016.2
20260507191819 65 20 6.1 13.0 0.00 0.00 0.00 85 1016.9
20260507191334 65 54 7.8 12.2 0.00 0.00 0.00 85 1016.4
20260507190841 65 46 4.3 12.2 0.00 0.00 0.00 85 1016.5
20260507190325 65 62 4.3 12.2 0.00 0.00 0.00 85 1016.2
20260507185831 65 46 7.0 13.9 0.00 0.00 0.00 85 1016.2
20260507185335 66 22 7.0 12.2 0.00 0.00 0.00 85 1016.6
20260507184841 66 17 7.0 13.0 0.00 0.00 0.00 85 1016.6
20260507184352 66 29 6.1 13.0 0.00 0.00 0.00 86 1016.8
20260507183835 66 350 7.0 11.3 0.00 0.00 0.00 86 1017.1
20260507183320 65 31 3.5 10.4 0.00 0.00 0.00 86 1017.1
20260507182825 65 351 5.2 9.6 0.00 0.00 0.00 86 1017.4
20260507182329 64 339 6.1 10.4 0.00 0.00 0.00 86 1017.5
20260507181837 64 346 3.5 10.4 0.00 0.00 0.00 86 1016.7
20260507181321 64 32 7.0 10.4 0.00 0.00 0.00 86 1016.9
20260507180832 64 44 2.6 7.0 0.00 0.00 0.00 86 1017.4
20260507180342 65 56 2.6 7.8 0.00 0.00 0.00 86 1017.8
20260507175828 65 5 4.3 10.4 0.00 0.00 0.00 87 1018.1
20260507175332 64 314 5.2 10.4 0.00 0.00 0.00 87 1018.0
20260507174839 64 5 4.3 9.6 0.00 0.00 0.00 87 1017.9
20260507174319 64 27 5.2 9.6 0.00 0.00 0.00 87 1017.1
20260507173821 63 53 7.0 9.6 0.00 0.00 0.00 87 1017.2
20260507173333 63 63 4.3 10.4 0.00 0.00 0.00 87 1017.4
20260507172838 63 44 5.2 13.9 0.00 0.00 0.00 87 1017.1
20260507172320 62 10 7.8 11.3 0.00 0.00 0.00 87 1017.4
20260507171825 62 87 5.2 9.6 0.00 0.00 0.00 87 1017.0
20260507171328 61 59 5.2 11.3 0.00 0.00 0.00 87 1017.2
20260507170834 61 344 4.3 12.2 0.00 0.00 0.00 87 1017.4
20260507170319 61 20 5.2 12.2 0.00 0.00 0.00 87 1017.3
20260507165827 61 18 6.1 11.3 0.00 0.00 0.00 87 1017.4
20260507165331 61 51 6.1 10.4 0.00 0.00 0.00 87 1017.8
20260507164818 61 360 7.0 9.6 0.00 0.00 0.00 87 1017.5
20260507164321 61 12 3.5 7.8 0.00 0.00 0.00 87 1017.6
20260507163838 61 57 4.3 7.8 0.00 0.00 0.00 87 1017.8
20260507163344 61 350 2.6 7.0 0.00 0.00 0.00 87 1017.9
20260507162829 61 316 3.5 8.7 0.00 0.00 0.00 87 1018.3
20260507162333 61 348 3.5 8.7 0.00 0.00 0.00 87 1018.1
20260507161837 61 5 2.6 8.7 0.00 0.00 0.00 87 1017.9
20260507161351 60 18 5.2 9.6 0.00 0.00 0.00 87 1018.1